Montrose, CO

6:57 AM MDT on April 22, 2018 (GMT -0600)
Montrose Regional

Weather History for KMTJ - January, 2012

Change the Weather History Date:

Sunday, January 1, 2012

  Actual Average Record
Temperature  
Mean Temperature 24 °F 25 °F  
Max Temperature 36 °F 37 °F 45 °F (2004)
Min Temperature 12 °F 13 °F -7 °F (2011)
Degree Days  
Heating Degree Days 41 40  
Month to date heating degree days 41 40  
Since 1 July heating degree days 2616 2648  
Cooling Degree Days 0 0  
Month to date cooling degree days 0  
Year to date cooling degree days 0  
Moisture  
Dew Point 10 °F    
Average Humidity 59    
Maximum Humidity 80    
Minimum Humidity 38    
Precipitation  
Precipitation 0.00 in 0.02 in 0.07 in (2000)
Month to date precipitation 0.00 0.02  
Year to date precipitation 0.00 0.02  
Sea Level Pressure  
Sea Level Pressure 30.70 in    
Wind  
Wind Speed 4 mph (SE)    
Max Wind Speed 10 mph    
Max Gust Speed 10 mph    
Visibility 10 miles    
Events      
T = Trace of Precipitation, MM = Missing Value Source: NWS Daily Summary

Daily Weather History Graph

Daily Weather History Graph

Search for Another Location

Airport or City:

Astronomy

Jan. 01, 2012 Rise Set
Actual Time 7:29 AM MST 5:01 PM MST
Civil Twilight 6:59 AM MST 5:30 PM MST
Nautical Twilight 6:26 AM MST 6:03 PM MST
Astronomical Twilight 5:54 AM MST 6:36 PM MST
Moon 11:48 AM MST (1/1) 12:30 AM MST (1/1)
Length of Visible Light 10h 31m
Length of Day
9h 32m
First Quarter, 55% of the Moon is Illuminated
Jan 1
First Quarter
Jan 9
Full
Jan 16
Last Quarter
Jan 23
New
Jan 30
First Quarter

Hourly Weather History & Observations

Time (MST) Temp. Windchill Dew Point Humidity Pressure Visibility Wind Dir Wind Speed Gust Speed Precip Events Conditions
1:53 AM 14.0 °F 5.1 °F 7.0 °F 74% 30.61 in 10.0 mi SSE 5.8 mph - N/A   Clear
2:53 AM 18.0 °F 8.7 °F 10.0 °F 71% 30.60 in 10.0 mi SSE 6.9 mph - N/A   Clear
3:53 AM 15.1 °F - 7.0 °F 70% 30.62 in 10.0 mi Calm Calm - N/A   Clear
4:53 AM 15.1 °F 4.2 °F 7.0 °F 70% 30.63 in 10.0 mi South 8.1 mph - N/A   Clear
5:53 AM 16.0 °F 8.8 °F 8.1 °F 71% 30.65 in 10.0 mi SSE 4.6 mph - N/A   Clear
6:53 AM 17.1 °F 6.6 °F 8.1 °F 68% 30.69 in 10.0 mi South 8.1 mph - N/A   Clear
7:53 AM 14.0 °F 6.5 °F 8.1 °F 77% 30.75 in 10.0 mi SSE 4.6 mph - N/A   Clear
8:53 AM 18.0 °F 12.7 °F 10.0 °F 71% 30.77 in 10.0 mi SSE 3.5 mph - N/A   Clear
9:53 AM 26.1 °F - 10.0 °F 51% 30.74 in 10.0 mi Calm Calm - N/A   Clear
10:53 AM 30.0 °F - 12.0 °F 47% 30.71 in 10.0 mi Calm Calm - N/A   Clear
11:53 AM 30.9 °F 27.5 °F 12.0 °F 46% 30.69 in 10.0 mi NE 3.5 mph - N/A   Clear
12:53 PM 33.1 °F - 10.9 °F 40% 30.66 in 10.0 mi Calm Calm - N/A   Clear
1:53 PM 34.0 °F 29.8 °F 12.9 °F 42% 30.64 in 10.0 mi North 4.6 mph - N/A   Clear
3:53 PM 34.0 °F 31.0 °F 12.9 °F 42% 30.67 in 10.0 mi NNE 3.5 mph - N/A   Clear
4:53 PM 30.9 °F - 10.9 °F 43% 30.70 in 10.0 mi Calm Calm - N/A   Clear
5:53 PM 24.1 °F 17.0 °F 12.9 °F 62% 30.72 in 10.0 mi SSE 5.8 mph - N/A   Clear
6:53 PM 21.0 °F 16.2 °F 14.0 °F 74% 30.76 in 10.0 mi East 3.5 mph - N/A   Clear
7:53 PM 19.9 °F 13.4 °F 12.9 °F 74% 30.79 in 10.0 mi South 4.6 mph - N/A   Clear
8:53 PM 18.0 °F 7.7 °F 12.0 °F 78% 30.79 in 9.0 mi SE 8.1 mph - N/A   Clear
9:53 PM 18.0 °F 7.7 °F 10.9 °F 74% 30.76 in 10.0 mi SE 8.1 mph - N/A   Clear